Tracking 20719 objects as of 26-May-2020
HD Live streaming from Space Station
objects crossing your sky now

IRIDIUM 145

Track IRIDIUM 145 now!
10-day predictions
IRIDIUM 145 is classified as:


NORAD ID: 43253
Int'l Code: 2018-030G
Perigee: 784.2 km
Apogee: 785.4 km
Inclination: 86.4 °
Period: 100.4 minutes
Semi major axis: 7155 km
RCS: Unknown
Launch date: March 30, 2018
Source: United States (US)
Launch site: AIR FORCE WESTERN TEST RANGE (AFWTR)
aabbcc
Your satellite tracking list
Your tracking list is empty




NASA's NSSDC Master Catalog

Two Line Element Set (TLE):
1 43253U 18030E   20146.43743825  .00000064  00000-0  15734-4 0  9992
2 43253  86.3949 135.5913 0000886  71.3252 288.8039 14.34215937112828
Source of the keplerian elements: AFSPC